Regional Weather Roundup
Issued by NWS Goodland, KS

Current Version | Previous Version | Text Only | Print | Product List | Glossary On
Versions: 1 2 3 4 5 6 7 8 9 10 11 12 13 14 15 16 17 18 19 20 21 22 23 24 25 26 27 28 29 30 31 32 33 34 35 36 37 38 39 40 41 42 43 44 45 46 47 48 49 50
000
ASUS43 KGLD 052208
RWRGLD

GOODLAND FORECAST AREA HOURLY WEATHER ROUNDUP
NATIONAL WEATHER SERVICE GOODLAND KS
300 PM MST MON DEC 05 2016

...OFFICIAL OBSERVATIONS...

CITY           SKY/WX    TMP DP  RH WIND       PRES   REMARKS
GOODLAND KS    CLOUDY    52  21  29 N25G37    29.63R
HILL CITY KS   MOSUNNY   53  30  41 E5        29.61R
IMPERIAL NEB   SUNNY     47  -2  13 NW26G40   29.67R
MCCOOK NEB     MOSUNNY   54  14  20 NW22      29.64R
AKRON CO       SUNNY     38   2  22 NW38G48   29.67R
BURLINGTON CO  CLOUDY    51  20  29 N25G39    29.63R
LIMON CO       MOSUNNY   48  15  26 NE23G31   29.63R
$$

...UNOFFICIAL OBSERVATIONS...

CITY           SKY/WX    TMP DP  RH WIND       PRES   REMARKS
COLBY KS       CLOUDY    54  28  37 NE20      29.65R
LENORA KS        N/A     51  32  48 MISG        N/A
NORTON KS      SUNNY     50  23  34 CALM      29.63R
SHARON SPRINGS   N/A     55  23  28 NE20        N/A
TRENTON NEB      N/A     49  32  52 NW20G26     N/A
KIT CARSON CO    N/A     56  23  27 MISG        N/A
YUMA CO        FAIR      39   3  22 NW32G40   29.69R
$$




USA.gov is the U.S. government's official web portal to all federal, state and local government web resources and services.